Weather History for Shirley, NY

Change the Weather History Date:

Sunday, December 9, 2012

  Actual Average (KISP) Record (KISP)
Temperature  
Mean Temperature 46 °F 38 °F  
Max Temperature 51 °F 45 °F 66 °F (1991)
Min Temperature 42 °F 30 °F 16 °F (2002)
Degree Days  
Heating Degree Days 19 27  
Month to date heating degree days 234  
Since 1 July heating degree days 1250  
Cooling Degree Days 0 0  
Month to date cooling degree days 0  
Year to date cooling degree days 787  
Moisture  
Dew Point 44 °F    
Average Humidity 90    
Maximum Humidity 100    
Minimum Humidity 73    
Precipitation  
Precipitation 0.25 in 0.14 in 2.14 in (2014)
Month to date precipitation 1.26  
Year to date precipitation 43.44  
Snow  
Snow 0.00 in 0.10 in 0.50 in (1986)
Month to date snowfall 0.9  
Since 1 July snowfall 1.4  
Snow Depth -    
Sea Level Pressure  
Sea Level Pressure 30.15 in    
Wind  
Wind Speed 4 mph (North)    
Max Wind Speed 10 mph    
Max Gust Speed 16 mph    
Visibility 6 miles    
Events Rain    
T = Trace of Precipitation, MM = Missing Value Source: NWS Daily Summary

Daily Weather History Graph

Daily Weather History Graph

Search for Another Location

Airport:

Trip Planner

Search our weather history database for the weather conditions in past years. The results will help you decide how hot, cold, wet, or windy it might be!

Date:

Astronomy

Dec. 09, 2012 Rise Set
Actual Time 7:04 AM EST 4:23 PM EST
Civil Twilight 6:33 AM EST 4:54 PM EST
Nautical Twilight 5:59 AM EST 5:28 PM EST
Astronomical Twilight 5:25 AM EST 6:02 PM EST
Moon 2:32 AM EST (12/9) 1:29 PM EST (12/9)
Length of Visible Light 10h 20m
Length of Day
9h 19m
Waning Crescent, 19% of the Moon is Illuminated
Dec 9
Waning Crescent
Dec 13
New
Dec 20
First Quarter
Dec 28
Full
Jan 4
Last Quarter

Hourly Weather History & Observations

Time (EST) Temp. Windchill Dew Point Humidity Pressure Visibility Wind Dir Wind Speed Gust Speed Precip Events Conditions
12:56 AM 50.0 °F - 48.0 °F 93% 30.02 in 4.0 mi SW 5.8 mph - 0.04 in Rain Light Rain
1:24 AM 50.0 °F - 48.2 °F 94% 30.02 in 4.0 mi SW 5.8 mph - 0.00 in Rain Light Rain
1:35 AM 50.0 °F - 48.2 °F 94% 30.03 in 4.0 mi SSW 4.6 mph - 0.00 in Rain Light Rain
2:56 AM 48.9 °F - 46.9 °F 93% 30.06 in 3.0 mi SSW 3.5 mph - N/A   Overcast
3:17 AM 48.2 °F - 46.4 °F 93% 30.06 in 2.5 mi Calm Calm - N/A   Overcast
3:32 AM 48.2 °F - 46.4 °F 93% 30.07 in 1.5 mi Calm Calm - N/A   Overcast
3:43 AM 48.2 °F - 46.4 °F 93% 30.08 in 1.0 mi Calm Calm - N/A   Overcast
3:56 AM 48.0 °F - 46.9 °F 96% 30.08 in 0.8 mi Calm Calm - N/A   Overcast
4:03 AM 48.2 °F - 46.4 °F 93% 30.08 in 1.5 mi Calm Calm - N/A   Overcast
4:14 AM 48.2 °F - 46.4 °F 93% 30.09 in 1.2 mi Calm Calm - N/A   Overcast
4:29 AM 48.2 °F - 46.4 °F 93% 30.09 in 2.0 mi NNW 4.6 mph - N/A   Overcast
4:41 AM 48.2 °F - 46.4 °F 93% 30.10 in 4.0 mi North 5.8 mph - N/A   Overcast
4:56 AM 48.9 °F - 46.0 °F 90% 30.12 in 6.0 mi North 5.8 mph - N/A   Overcast
5:15 AM 48.2 °F - 46.4 °F 93% 30.12 in 6.0 mi North 3.5 mph - N/A   Scattered Clouds
5:51 AM 44.6 °F 43.1 °F 44.6 °F 100% 30.14 in 1.8 mi North 3.5 mph - N/A   Clear
5:56 AM 45.0 °F 43.5 °F 44.1 °F 97% 30.14 in 2.5 mi North 3.5 mph - N/A   Clear
6:05 AM 44.6 °F 42.2 °F 44.6 °F 100% 30.15 in 4.0 mi North 4.6 mph - N/A   Clear
6:56 AM 46.0 °F 43.9 °F 44.1 °F 93% 30.17 in 7.0 mi North 4.6 mph - N/A   Clear
7:56 AM 46.0 °F 42.5 °F 43.0 °F 89% 30.21 in 10.0 mi North 6.9 mph - N/A   Mostly Cloudy
8:56 AM 46.0 °F 41.4 °F 39.9 °F 79% 30.23 in 10.0 mi North 9.2 mph 16.1 mph N/A   Overcast
9:56 AM 46.0 °F 41.0 °F 37.9 °F 73% 30.25 in 10.0 mi North 10.4 mph - N/A   Mostly Cloudy
10:56 AM 46.0 °F 43.1 °F 37.9 °F 73% 30.23 in 10.0 mi North 5.8 mph - N/A   Overcast
11:56 AM 46.0 °F 43.1 °F 39.0 °F 76% 30.24 in 10.0 mi North 5.8 mph - 0.01 in Rain Light Rain
12:56 PM 46.0 °F 44.8 °F 39.0 °F 76% 30.22 in 10.0 mi Variable 3.5 mph - 0.00 in Rain Light Rain
1:56 PM 45.0 °F 43.5 °F 39.0 °F 80% 30.22 in 10.0 mi NNE 3.5 mph - 0.00 in Rain Light Rain
2:56 PM 45.0 °F - 39.9 °F 82% 30.22 in 10.0 mi Calm Calm - 0.01 in Rain Light Rain
3:56 PM 44.1 °F 42.5 °F 41.0 °F 89% 30.22 in 7.0 mi NNE 3.5 mph - 0.03 in Rain Light Rain
4:56 PM 44.1 °F - 42.1 °F 93% 30.22 in 10.0 mi Calm Calm - 0.02 in Rain Light Rain
5:56 PM 45.0 °F - 42.1 °F 90% 30.22 in 9.0 mi Calm Calm - 0.02 in Rain Light Rain
6:07 PM 44.6 °F - 42.8 °F 93% 30.22 in 9.0 mi Calm Calm - 0.00 in Rain Light Rain
6:56 PM 45.0 °F 41.8 °F 42.1 °F 90% 30.22 in 5.0 mi Variable 5.8 mph - 0.02 in Rain Light Rain
7:11 PM 44.6 °F 42.2 °F 42.8 °F 93% 30.21 in 5.0 mi Variable 4.6 mph - 0.01 in Rain Light Rain
7:29 PM 44.6 °F 41.4 °F 41.0 °F 87% 30.20 in 10.0 mi Variable 5.8 mph - 0.01 in   Overcast
7:56 PM 44.1 °F 41.5 °F 41.0 °F 89% 30.19 in 8.0 mi Variable 4.6 mph - 0.01 in Rain Light Rain
8:18 PM 42.8 °F 40.1 °F 41.0 °F 93% 30.18 in 5.0 mi Variable 4.6 mph - 0.00 in Rain Light Rain
8:32 PM 42.8 °F 40.1 °F 41.0 °F 93% 30.18 in 4.0 mi Variable 4.6 mph - 0.01 in Rain Light Rain
8:56 PM 44.1 °F 41.5 °F 42.1 °F 93% 30.16 in 5.0 mi Variable 4.6 mph - 0.01 in   Overcast
9:56 PM 46.0 °F 42.5 °F 44.1 °F 93% 30.11 in 6.0 mi Variable 6.9 mph - 0.03 in Rain Light Rain
10:56 PM 48.9 °F - 46.9 °F 93% 30.06 in 7.0 mi Variable 5.8 mph - 0.01 in Rain Light Rain
11:56 PM 51.1 °F - 48.9 °F 92% 30.02 in 7.0 mi ESE 8.1 mph - 0.04 in Rain Light Rain